Погода в Большой Елани

Россия / Пензенская область     53°03′18″N   44°41′21″E
темп.,
°C
ветер,
м/с
пор.,
м/с
влажн.,
%
обл.,
%
осадки,
мм/ч
давл.,
гПа
погр.,
м
9 марта, вт
вт900:00−13зсз34900 0.0 100835
03:00−16з22940 0.0 101020
06:00−17зсз12960 0.0 101120
09:00−13ссз22931 0.0 101198
12:00−10сз238956 0.0 1011331
15:00−9сз459078 0.0 1012508
18:00−13сз489499 0.1 1013208
21:00−15сз349683 0.1 101575
10 марта, ср
ср1000:00−17сз349689 0.1 101576
03:00−19сз479975 0.1 1017123
06:00−21сз499981 0.0 1019181
09:00−19сз589588 0.1 1021317
12:00−16сз5890100 0.0 1022577
15:00−16сз6889100 0.1 1023690
18:00−19ссз4995100 0.1 1025210
21:00−23ссз479794 0.1 1027115
11 марта, чт
чт1100:00−25ссз349718 0.0 102859
03:00−26ссз349810 0.0 103037
06:00−27сз33980 0.0 103029
09:00−22сз47968 0.0 1032234
12:00−18сз469372 0.0 1031327
15:00−16сз469070 0.0 1031364
18:00−19зсз349637 0.0 103153
21:00−19сз349842 0.0 103258
12 марта, пт
пт1200:00−19ссз339934 0.0 103325
03:00−20ссз229917 0.0 103420
06:00−21с22990 0.0 103520
09:00−17ссз12920 0.0 103689
12:00−12сз00840 0.0 1036213
15:00−10ююз11830 0.0 1035227
18:00−15юз22920 0.0 103520
21:00−17ююз23930 0.0 103720
13 марта, сб
сб1300:00−18ю34950 0.0 103732
03:00−19ююз34980 0.0 103753
06:00−20ю34960 0.0 103771
09:00−15ююз58890 0.0 1037261
12:00−11ю69861 0.0 1036390
15:00−10ю6118339 0.0 1034544
18:00−13ю5118998 0.0 1033251
21:00−15ю5129262 0.0 1033225